This is the latest recevied weather packets stored in our database for station/object W1GK. If no packets are shown the sender has not sent any weather packets the latest 10 day(s).
| Time | Temp. | Humidity | Pressure | Rain* | Wind** | Luminosity | Snow |
|---|---|---|---|---|---|---|---|
| 1788043195 | 40° C | 16% | 1010.4 hPa | 0 mm | - | 635 W/m² | - |
| 1788042595 | 40° C | 15% | 1010.6 hPa | 0 mm | - | 643 W/m² | - |
| 1788041996 | 40° C | 15% | 1010.6 hPa | 0 mm | - | 643 W/m² | - |
| 1788041395 | 40.56° C | 15% | 1010.8 hPa | 0 mm | - | 680 W/m² | - |
| 1788040798 | 40.56° C | 16% | 1011 hPa | 0 mm | - | 719 W/m² | - |
| 1788040195 | 40.56° C | 16% | 1011.3 hPa | 0 mm | - | 754 W/m² | - |
| 1788039595 | 40° C | 17% | 1011.2 hPa | 0 mm | - | 772 W/m² | - |
| 1788038995 | 40° C | 17% | 1011.3 hPa | 0 mm | - | 548 W/m² | - |
| 1788038396 | 40° C | 17% | 1011.5 hPa | 0 mm | - | 248 W/m² | - |
| 1788037794 | 40° C | 17% | 1011.7 hPa | 0 mm | - | 169 W/m² | - |
| 1788037197 | 38.89° C | 18% | 1011.9 hPa | 0 mm | - | 338 W/m² | - |
| 1788036595 | 39.44° C | 18% | 1011.9 hPa | 0 mm | - | 302 W/m² | - |
| 1788035995 | 38.89° C | 18% | 1012.1 hPa | 0 mm | - | 334 W/m² | - |
| 1788035396 | 38.89° C | 18% | 1012.1 hPa | 0 mm | - | 438 W/m² | - |
| 1788034795 | 39.44° C | 18% | 1012.3 hPa | 0 mm | - | 216 W/m² | - |
| 1788034195 | 40° C | 17% | 1012.3 hPa | 0 mm | - | 759 W/m² | - |
| 1788033595 | 40° C | 17% | 1012.4 hPa | 0 mm | - | 842 W/m² | - |
| 1788032996 | 39.44° C | 18% | 1012.5 hPa | 0 mm | - | 846 W/m² | - |
| 1788032395 | 39.44° C | 17% | 1012.7 hPa | 0 mm | - | 858 W/m² | - |
| 1788031794 | 39.44° C | 18% | 1012.9 hPa | 0 mm | - | 902 W/m² | - |
| 1788031195 | 39.44° C | 18% | 1013.1 hPa | 0 mm | - | 793 W/m² | - |
| 1788030595 | 38.89° C | 19% | 1013.3 hPa | 0 mm | - | 888 W/m² | - |
| 1788029995 | 38.33° C | 19% | 1013.5 hPa | 0 mm | - | 492 W/m² | - |
| 1788029395 | 38.89° C | 19% | 1013.6 hPa | 0 mm | - | 689 W/m² | - |
| 1788028795 | 38.33° C | 20% | 1013.7 hPa | 0 mm | - | 963 W/m² | - |
* Rain latest hour (hover to see other rain measurements)
** Current wind speed in m/s (hover to see current wind gust speed)